Home   Weather   Rehovot   Past weeks

Flag for Israel Past Weather in Rehovot, Israel — Yesterday and Last 2 Weeks

Now
79 °F

Clear.


Feels Like: 79 °F
Forecast: 66 / 78 °F
Wind: 5 mph from East

Location: Ben Gurion International Airport

Current Time: May 22, 2017 at 10:34:48 pm

Latest Report: May 22, 2017 at 10:20 pm


Visibility: 10 mi

Pressure: 29.77 "Hg

Humidity: 32%

Dew Point: 46 °F

Location of RehovotLocation

Past Weather in Rehovot — Graph

°F

Rehovot Temperature Yesterday

Maximum temperature yesterday: 77 °F (at 12:50 pm)
Minimum temperature yesterday: 66 °F (at 2:20 am)
Average temperature yesterday: 71 °F

High & Low Weather Summary for the Past Weeks

 TemperatureHumidityPressure
High104 °F (May 9, 1:50 pm)88% (May 13, 4:20 am)30.01 "Hg (May 13, 4:20 am)
Low59 °F (May 22, 3:20 am)8% (May 9, 1:50 pm)29.65 "Hg (May 19, 1:20 am)
Average75 °F56%29.88 "Hg
* Reported May 7 9:20 pm — May 22 9:20 pm, Rehovot. Weather by CustomWeather, © 2017

Note: Actual official high and low records may vary slightly from our data, if they occured in-between our weather recording intervals... More about our weather records

Advertising

Rehovot Weather History for the Previous 24 Hours

Scroll right to see more
 ConditionsComfort  
Time TempWeatherWind HumidityBarometerVisibility
9:20 pm
Mon, May 22
79 °FClear.8 mph32%29.77 "Hg10 mi
8:50 pm81 °FClear.7 mph30%29.77 "Hg10 mi
8:20 pm81 °FClear.6 mph30%29.77 "Hg10 mi
7:50 pm82 °FClear.3 mph26%29.77 "Hg10 mi
7:20 pm82 °FSunny.3 mph26%29.77 "Hg10 mi
6:50 pm82 °FSunny.8 mph26%29.77 "Hg10 mi
6:20 pm84 °FSunny.9 mph25%29.77 "Hg10 mi
5:50 pm86 °FSunny.8 mph24%29.77 "Hg10 mi
5:20 pm88 °FSunny.9 mph22%29.77 "Hg10 mi
4:50 pm88 °FSunny.7 mph22%29.80 "Hg10 mi
4:20 pm88 °FSunny.6 mph22%29.80 "Hg10 mi
3:50 pm88 °FSunny.8 mph22%29.80 "Hg10 mi
3:20 pm88 °FSunny.6 mph24%29.80 "Hg10 mi
2:50 pm88 °FSunny.7 mph24%29.80 "Hg10 mi
2:20 pm88 °FSunny.9 mph24%29.83 "Hg10 mi
1:50 pm86 °FSunny.13 mph27%29.83 "Hg10 mi
1:20 pm86 °FSunny.13 mph27%29.83 "Hg10 mi
12:50 pm86 °FSunny.15 mph29%29.86 "Hg10 mi
12:20 pm84 °FPassing clouds.8 mph29%29.86 "HgN/A
11:50 am84 °FPassing clouds.12 mph29%29.86 "HgN/A
11:20 am84 °FSunny.7 mph25%29.86 "Hg10 mi
10:50 am84 °FPassing clouds.7 mph25%29.86 "HgN/A
10:20 am82 °FPassing clouds.8 mph25%29.86 "HgN/A
9:50 am81 °FPassing clouds.7 mph28%29.86 "HgN/A
9:20 am79 °FPassing clouds.9 mph32%29.86 "HgN/A
8:50 am77 °FPassing clouds.5 mph36%29.89 "HgN/A
8:20 am75 °FSunny.2 mph34%29.89 "Hg10 mi
7:50 am70 °FSunny.2 mph40%29.89 "Hg10 mi
7:20 am66 °FSunny.3 mph46%29.89 "Hg10 mi
6:50 am64 °FSunny.2 mph49%29.89 "Hg10 mi
6:20 am61 °FSunny.2 mph55%29.89 "Hg10 mi
5:50 am61 °FSunny.3 mph55%29.89 "Hg10 mi
5:20 am61 °FClear.5 mph59%29.89 "Hg10 mi
4:50 am63 °FClear.2 mph59%29.89 "Hg10 mi
4:20 am63 °FClear.3 mph64%29.89 "Hg10 mi
3:50 am61 °FClear.2 mph72%29.89 "Hg10 mi
3:20 am59 °FClear.1 mph82%29.89 "Hg10 mi
2:50 am63 °FClear.1 mph73%29.89 "Hg10 mi
2:20 am64 °FClear.2 mph68%29.89 "Hg10 mi
1:50 am66 °FClear.6 mph68%29.92 "Hg10 mi
1:20 am66 °FClear.7 mph68%29.92 "Hg10 mi
12:50 am66 °FClear.7 mph68%29.95 "Hg10 mi
12:20 am66 °FClear.N/A73%29.95 "Hg10 mi
11:50 pm
Sun, May 21
68 °FClear.6 mph69%29.95 "Hg10 mi
11:20 pm68 °FClear.3 mph69%29.95 "Hg10 mi
10:50 pm68 °FClear.2 mph73%29.95 "Hg10 mi
10:20 pm68 °FClear.3 mph73%29.95 "Hg10 mi
Weather by CustomWeather, © 2017

See weather overviewHow to use our weather pages